COSMOS 1579 COOLANT, 28274

Orbit data source: Space-Track

COSMOS 1579 COOLANT, 28274 is space debris in LEO originally from a launch on Fri, 29 Jun 1984 UTC launched from the Tyuratam Missile And Space Complex (TTMTR). Debris objects in space refer to the collection of defunct objects orbiting the Earth. Examples of debris include non-operational satellites, rocket bodies, and fragments generated from explosions, collisions, or faulty payload assembly.

Loading next visibility...
Identifier
28274, 1984-069AK
Orbit
LEO
Country
Flag of CISCIS
Related business
Manufacturer
Unknown
Mission
Spacecraft
Bus & Motor
Unknown
Mass
Unknown
Launch date (UTC)
1984-06-29 (41 years ago)
Launch vehicle
Unknown
Launch site
Tyuratam Missile And Space Complex (TTMTR)
Object type
Payload
Rocket body
Debris
Shape & HBR
Unknown
Radar Cross Section
Small (<0.1 m²)

Expand to show TLE details & history
Last TLE update: 2 days ago

TLE from 2 days ago
0 COSMOS 1579 COOLANT
1 28274U 84069AK  25258.15106523  .00000427  00000-0  39674-3 0  9990
2 28274  65.0493 222.1979 0028886  97.0967 263.3385 13.92943375160928
Epoch: 2025-09-15T03:37Z
TLE epoch observation values (Epoch: 2025-09-15T03:37:32.035Z)
Latitude
0.00002°
Longitude
173.45459°
Altitude
922.78 km
Speed
7.39 km/s
True Right ascension
14h 48m 47s
True Declination
0° 00' 00"
Sunlit
Object was in daylight at epoch
Visualization orbit readout
Latitude
Unknown
Longitude
Unknown
Altitude
Unknown
Speed
Unknown
Apparent Right ascension
Unknown
Apparent Declination
Unknown
Sunlit
N/A
Visualization observer readout
Local Sidereal Time
14:41:50
Azimuth
Unknown
Elevation
Unknown
Doppler factor
Unknown
Orbital elements
Apogee altitude
938.004 km
Perigee altitude
895.859 km
Semi-major axis
7,295.069 km
Eccentricity
0.00289
Inclination
65.0493°
RAAN
222.1979°
Arg. of periapsis
97.0967°
True anomaly
263.00986°
Mean anomaly
263.3385°
Eccentric anomaly
263.17417°
Mean motion
3.48337 °/min
Orbital period
103.35 mins
BSTAR
0.00039674
Loading maneuver chart data...
Computing Atmospheric mass density...

Documentation

Showing up to 5 results
|